Location: Borovka
(49.7741°N, 14.5280°E)
Time: 10:00:06
(UTC+00:00)

LilacSat-2 - Pass Details

Date: 14 March 2026
Orbit: 412 x 424 km, 97.5° (Epoch: 20 April)

Event Time Altitude Azimuth Distance (km) Brightness Sun altitude
Rises 18:09:16 0° 171° (S) 2,390 ? -11.1°
Reaches altitude 10° 18:11:16 10° 173° (S) 1,529 ? -11.4°
Maximum altitude 18:14:32 69° 258° (WSW) 468 ? -12.0°
Drops below altitude 10° 18:17:50 10° 342° (NNW) 1,545 ? -12.5°
Sets 18:19:52 0° 345° (NNW) 2,418 ? -12.8°
